Location: Newark
(12.0500°N, 61.7500°W)
Time: 23:04:19
(UTC+00:00)

Envisat - Pass Details

Date: 30 January 2020
Orbit: 764 x 766 km, 98.1° (Epoch: 19 February)

Event Time Altitude Azimuth Distance (km) Brightness Sun altitude
Rises 22:32:57 0° 177° (S) 3,222 6.4 -6.6°
Reaches altitude 10° 22:35:17 10° 182° (S) 2,296 5.7 -7.1°
Maximum altitude 22:40:14 54° 259° (WSW) 920 3.9 -8.3°
Drops below altitude 10° 22:45:10 10° 336° (NNW) 2,296 5.6 -9.4°
Sets 22:47:31 0° 341° (NNW) 3,222 6.3 -10.0°
